Weather History for K8D3 - January, 2013

Change the Weather History Date:

Wednesday, January 2, 2013

  Actual Average Record
Temperature  
Mean Temperature 18 °F 13 °F  
Max Temperature 30 °F 23 °F 54 °F (1964)
Min Temperature 6 °F 4 °F -35 °F (2010)
Degree Days  
Heating Degree Days 47 52  
Month to date heating degree days 99 104  
Since 1 July heating degree days 3474 3443  
Cooling Degree Days 0 0  
Month to date cooling degree days 0 0  
Year to date cooling degree days 0 0  
Moisture  
Dew Point 16 °F    
Average Humidity 81    
Maximum Humidity 88    
Minimum Humidity 73    
Precipitation  
Precipitation 0.02 in 0.01 in 0.56 in (1937)
Month to date precipitation 0.00 0.03  
Year to date precipitation 0.00 0.03  
Snow  
Snow 0.00 in - - ()
Month to date snowfall 0.0  
Since 1 July snowfall 9.0  
Snow Depth 6.00 in    
Sea Level Pressure  
Sea Level Pressure 30.07 in    
Wind  
Wind Speed 15 mph (NNW)    
Max Wind Speed 24 mph    
Max Gust Speed 29 mph    
T = Trace of Precipitation, MM = Missing Value Source: NWS Daily Summary

Daily Weather History Graph

Daily Weather History Graph

Search for Another Location

Airport or City:

Trip Planner

Search our weather history database for the weather conditions in past years. The results will help you decide how hot, cold, wet, or windy it might be!

Date:

Astronomy

Jan. 02, 2013 Rise Set
Actual Time 8:08 AM CST 4:55 PM CST
Civil Twilight 7:34 AM CST 5:30 PM CST
Nautical Twilight 6:57 AM CST 6:07 PM CST
Astronomical Twilight 6:21 AM CST 6:43 PM CST
Moon 10:48 PM CST (1/2) 10:34 AM CST (1/2)
Length of Visible Light 9h 55m
Length of Day
8h 47m
Waning Gibbous, 75% of the Moon is Illuminated
Jan 2
Waning Gibbous
Jan 4
Last Quarter
Jan 11
New
Jan 18
First Quarter
Jan 26
Full

Hourly Weather History & Observations

Time (CST) Temp. Windchill Dew Point Humidity Pressure Visibility Wind Dir Wind Speed Gust Speed Precip Events Conditions
12:56 AM 16.0 °F 4.4 °F 10.9 °F 81% 29.98 in - NW 9.2 mph - N/A   Unknown
1:56 AM 19.9 °F 9.3 °F 14.0 °F 78% 29.96 in - West 9.2 mph - N/A   Unknown
2:56 AM 19.9 °F 13.4 °F 15.1 °F 81% 29.97 in - West 4.6 mph - N/A   Unknown
3:56 AM 23.0 °F 12.4 °F 19.0 °F 85% 29.95 in - WNW 10.4 mph - N/A   Unknown
4:56 AM 25.0 °F 14.8 °F 21.0 °F 85% 29.94 in - West 10.4 mph - N/A   Unknown
5:56 AM 26.1 °F 15.0 °F 21.9 °F 84% 29.94 in - WNW 12.7 mph - N/A   Unknown
6:56 AM 27.0 °F 14.7 °F 23.0 °F 85% 29.94 in - WNW 16.1 mph - N/A   Unknown
7:56 AM 28.9 °F 16.9 °F 23.0 °F 78% 29.95 in - NW 17.3 mph - N/A   Unknown
8:56 AM 28.9 °F 17.7 °F 23.0 °F 78% 29.97 in - NW 15.0 mph - N/A   Unknown
9:56 AM 30.0 °F 20.0 °F 24.1 °F 79% 29.98 in - NW 12.7 mph - N/A   Unknown
10:56 AM 30.0 °F 20.5 °F 25.0 °F 82% 30.00 in - North 11.5 mph - N/A   Unknown
11:56 AM 28.0 °F 13.9 °F 21.0 °F 75% 30.01 in - North 23.0 mph 28.8 mph N/A   Unknown
12:56 PM 28.0 °F 15.3 °F 21.0 °F 75% 30.03 in - North 18.4 mph - N/A   Unknown
1:56 PM 27.0 °F 13.5 °F 19.9 °F 75% 30.04 in - North 19.6 mph - N/A   Unknown
2:56 PM 25.0 °F 12.2 °F 19.0 °F 78% 30.07 in - North 16.1 mph - N/A   Unknown
3:56 PM 24.1 °F 13.1 °F 19.9 °F 84% 30.09 in - North 11.5 mph - 0.01 in   Unknown
4:56 PM 23.0 °F 10.6 °F 19.0 °F 85% 30.11 in - North 13.8 mph - N/A   Unknown
5:56 PM 19.9 °F 4.8 °F 12.9 °F 74% 30.15 in - North 18.4 mph - N/A   Unknown
6:56 PM 18.0 °F 1.3 °F 12.0 °F 78% 30.18 in - North 20.7 mph - N/A   Unknown
7:56 PM 14.0 °F -1.4 °F 8.1 °F 77% 30.23 in - North 15.0 mph - N/A   Unknown
8:56 PM 10.9 °F -5.9 °F 6.1 °F 81% 30.25 in - North 16.1 mph - N/A   Unknown
9:56 PM 9.0 °F -9.0 °F 3.9 °F 80% 30.28 in - North 17.3 mph - N/A   Unknown
10:56 PM 7.0 °F -9.8 °F 1.9 °F 80% 30.31 in - NNW 13.8 mph - 0.01 in   Unknown
11:56 PM 6.1 °F -12.2 °F 1.9 °F 83% 30.34 in - NNW 16.1 mph - N/A   Unknown